Regional Weather Roundup
Issued by NWS

Home | Current Version | Previous Version | Text Only | Print | Product List | Glossary On
Versions: 1 2 3 4 5 6 7 8 9 10 11 12 13 14 15 16 17 18 19 20 21 22 23 24 25 26 27 28 29 30 31 32 33 34 35 36 37 38 39 40 41 42 43 44 45 46 47 48 49 50
000
ASUS44 KBMX 291310
RWRAL

ALABAMA REGIONAL WEATHER ROUNDUP
NATIONAL WEATHER SERVICE BIRMINGHAM AL
800 AM CDT TUE JUL 29 2014

NOTE: "FAIR" INDICATES FEW OR NO CLOUDS BELOW 12,000 FEET
WITH NO SIGNIFICANT WEATHER AND/OR OBSTRUCTIONS TO VISIBILITY.

THE REMARK "TC" DENOTES TEMPERATURE IN DEGREES CELSIUS.

ALZ001>011-014-016>018-020-291400-
NORTH ALABAMA

CITY           SKY/WX    TMP DP  RH WIND       PRES   REMARKS
MUSCLE SHOALS  SUNNY     68  59  73 N7        30.10R
HUNTSVILLE     MOSUNNY   69  59  70 N10       30.06R
DECATUR        SUNNY     67  60  78 N10       30.08R
HALEYVILLE     FAIR      66  61  84 N8        30.12R
GADSDEN        SUNNY     70  61  73 NW6       30.03S
$$

ALZ012-013-022-023-030>036-040>044-291400-
WEST CENTRAL ALABAMA

CITY           SKY/WX    TMP DP  RH WIND       PRES   REMARKS
TUSCALOOSA     SUNNY     73  63  70 N6        30.06R
$$

ALZ015-024>027-033>036-040>044-291400-
CENTRAL ALABAMA

CITY           SKY/WX    TMP DP  RH WIND       PRES   REMARKS
BIRMINGHAM     SUNNY     71  62  73 N6        30.07R
MONTGOMERY     SUNNY     75  63  66 N3        30.03R
SHELBY CO ARPT SUNNY     74  62  66 N5        30.05R
MAXWELL AFB    SUNNY     74  65  74 NW5       30.03R
GREENVILLE     FAIR      74  64  71 N6        30.03R
$$

ALZ019-021-028-029-037-038-045>048-291400-
EAST CENTRAL ALABAMA

CITY           SKY/WX    TMP DP  RH WIND       PRES   REMARKS
ANNISTON       SUNNY     70  62  76 CALM      30.04R
ALEXANDER CITY SUNNY     76  63  64 N7        30.04R
AUBURN         SUNNY     70  61  73 N10       30.05R
$$

ALZ051>064-291400-
SOUTHWEST ALABAMA

CITY           SKY/WX    TMP DP  RH WIND       PRES   REMARKS
MOBILE         MOSUNNY   75  67  76 N10       30.06R
BROOKLEY FIELD MOSUNNY   77  67  71 N12       30.05R
EVERGREEN      SUNNY     74  66  76 NW6       30.04R
$$

ALZ049-050-065>069-291400-
SOUTHEAST ALABAMA

CITY           SKY/WX    TMP DP  RH WIND       PRES   REMARKS
DOTHAN         SUNNY     73  65  75 N7        30.04R
OZARK          SUNNY     74  66  74 N7        30.01R
TROY           SUNNY     74  64  71 N8        30.03R
EUFAULA        FAIR      75  65  70 N5        30.00R
$$


USA.gov is the U.S. government's official web portal to all federal, state and local government web resources and services.